Simultaneous Nadir Overpasses (SNOs) Predictions

Prediction of SNOs between NOAA-20 and AQUA Satellite Orbit:

Table of predicted SNOs for the next 14.0 days since TLE Epoch: 10/16/2021
Index Date (NOAA-20) Time (NOAA-20) Lat,Lon (NOAA-20) SZA (NOAA-20 ) Date (AQUA) Time (AQUA) Lat,Lon (AQUA) SZA (AQUA ) Distance(km) Time Diff (sec)
1 10/17/2021 05:56:16 -76.18, 150.43 74.66 10/17/2021 05:56:51 -76.19, 150.44 74.69 0.40 35
2 10/17/2021 06:46:40 77.07, -38.85 104.31 10/17/2021 06:45:58 77.07, -38.84 104.34 0.21 42
3 10/19/2021 22:12:58 -76.72, -91.82 74.37 10/19/2021 22:13:08 -76.71, -91.92 74.35 2.58 10
4 10/19/2021 23:03:24 77.49, 78.77 104.70 10/19/2021 23:02:17 77.48, 78.67 104.79 2.85 67
5 10/22/2021 13:39:25 75.80,-146.62 107.59 10/22/2021 13:40:26 75.81,-146.60 107.53 0.72 61
6 10/22/2021 14:29:47 -76.89, 24.62 73.66 10/22/2021 14:29:31 -76.89, 24.60 73.64 0.64 16
7 10/25/2021 05:56:13 76.07, -29.95 108.18 10/25/2021 05:56:48 76.07, -29.88 108.13 2.09 35
8 10/25/2021 06:46:36 -77.10, 141.26 73.02 10/25/2021 06:45:54 -77.10, 141.27 72.99 0.33 42
9 10/27/2021 22:13:00 76.37, 86.90 108.70 10/27/2021 22:13:09 76.38, 86.99 108.67 2.46 9



Historial Predications of SNOs between NOAA-20 and AQUA
